Regional Weather Roundup
Issued by NWS Charleston, SC

Current Version | Previous Version | Text Only | Print | Product List | Glossary Off
Versions: 1 2 3 4 5 6 7 8 9 10 11 12 13 14 15 16 17 18 19 20 21 22 23 24 25 26 27 28 29 30 31 32 33 34 35 36 37 38 39 40 41 42 43 44 45 46 47 48 49 50

000
ASUS42 KCHS 210025
RWRCHS

REGIONAL WEATHER ROUNDUP
NATIONAL WEATHER SERVICE CHARLESTON SC
800 PM EDT MON OCT 20 2014

NOTE: "FAIR" INDICATES FEW OR NO CLOUDS BELOW 12,000 FEET WITH NO
SIGNIFICANT WEATHER AND/OR OBSTRUCTIONS TO VISIBILITY.

NOT ALL STATIONS ARE QUALITY CONTROLLED BY THE NATIONAL
WEATHER SERVICE. USE DATA WITH CAUTION...ESPECIALLY
DEWPOINT OBSERVATIONS.

SCZ027-030-031-034>040-042>050-210100-
...SOUTH CAROLINA...

CITY           SKY/WX    TMP DP  RH WIND       PRES   REMARKS
N CHARLESTON   PTCLDY    68  58  70 S3        30.01R
6HR MIN TEMP:  67; 6HR MAX TEMP:  78;

WATERFRONT PRK   N/A     72 N/A N/A CALM        N/A
FORT JOHNSON   NOT AVBL
JOHNS ISLAND   CLEAR     66  63  88 CALM      30.01R
PINOPOLIS        N/A     72  61  68 SE2       29.93R
MONCKS CORNER  FAIR      64  63  94 CALM      30.00S
SUMMERVILLE    FAIR      64  61  88 CALM      30.01R
BEAUFORT MCAS  MOCLDY    68  61  78 CALM      30.00R
6HR MIN TEMP:  67; 6HR MAX TEMP:  80;

BEAUFORT ARPT  FAIR      66  63  88 CALM      29.99S
HILTON HEAD IS CLEAR     66  64  94 CALM      30.01R
GEORGETOWN     NOT AVBL
WALTERBORO     PTCLDY    68  61  77 CALM      30.01S
ORANGEBURG     FAIR      63  55  75 CALM      30.00R
6HR MIN TEMP:  63; 6HR MAX TEMP:  75;

BARNWELL       FAIR      61  55  82 CALM      30.00S
AIKEN          FAIR      63  52  67 CALM      30.04R
MANNING        FAIR      61 N/A N/A CALM      30.01R
KINGSTREE      NOT AVBL
COLUMBIA       PTCLDY    62  54  74 CALM      30.00R
6HR MIN TEMP:  61; 6HR MAX TEMP:  76;

SUMTER         CLEAR     64  56  76 SE2       29.99R
6HR MIN TEMP:  64; 6HR MAX TEMP:  76;

FLORENCE       PTCLDY    63  55  75 CALM      30.00R
6HR MIN TEMP:  63; 6HR MAX TEMP:  76;

MYRTLE BEACH   CLEAR     70  59  68 S5        30.01R
N MYRTLE BEACH CLEAR     63  60  90 CALM      30.01R
6HR MIN TEMP:  63; 6HR MAX TEMP:  73;


$$

GAZ063-065-086>088-099>101-113>116-118-119-134-136>141-150-210100-
...GEORGIA...

CITY           SKY/WX    TMP DP  RH WIND       PRES   REMARKS
SAVANNAH ARPT  CLOUDY    71  61  70 SE5       29.99S
6HR MIN TEMP:  71; 6HR MAX TEMP:  80;

HUNTER AAF     MOCLDY    69  63  81 SE2       29.97S
6HR MIN TEMP:  69; 6HR MAX TEMP:  79;

FORT STEWART   MOCLDY    69  63  83 CALM      29.97S
6HR MIN TEMP:  69; 6HR MAX TEMP:  78;

STATESBORO     NOT AVBL
SYLVANIA       CLOUDY    72  67  85 CALM      30.01R
CLAXTON        FAIR      70  68  94 CALM      29.99S
THOMSON        CLEAR     58  58 100 MISG      30.06R
AUGUSTA-BUSH   MOCLDY    62  50  64 N5        30.00R
6HR MIN TEMP:  60; 6HR MAX TEMP:  77;

AUGUSTA-DANIEL CLEAR     68  49  50 NW6       30.01R
SWAINSBORO     FAIR      63  59  88 MISG      30.01R
VIDALIA        PTCLDY    66  61  82 CALM      30.00R
ALMA           MOCLDY    68  63  84 CALM      29.98R
6HR MIN TEMP:  67; 6HR MAX TEMP:  80;

WAYCROSS       PTCLDY    70  68  93 CALM      29.98R
JESUP          FAIR      72  66  83 CALM      29.99R
BRUNSWICK      MOCLDY    68  63  83 CALM      29.99R
SAINT SIMONS   MOCLDY    72  64  76 SE6       29.98S
6HR MIN TEMP:  72; 6HR MAX TEMP:  77;


$$

SCZ027-028-034-036>038-045-046-048>050-GAZ119-141-210100-
...LAKE AND SUPPLEMENTAL COASTAL OBSERVATIONS...

STATION/POSITION TIME  TEMP    WIND        PRES    WAVE   SWELL
                       AIR SEA DIR/SP/G            HT/PER HT/PER/DIR
                 (UTC) (F)     (DEG/KT/KT) (MB)    (FT/S) (FT/S/D)
UPR LAKE MARION  NOT AVBL
WINYAH BAY       0000   65     310/  2     1016.0S
LAKE MURRAY      0000   67     300/  3/  4 1015.2S
ACE BASIN NERRS  0000   66        CALM     1016.0R
FORT PULASKI     0000   72     130/  1/  2 1015.8R
SAPELO ISLAND    NOT AVBL

$$

ANZ835-935-AMZ111-154-330-350-352-354-374-450-454-472-210100-
...C-MAN AND BUOY OBSERVATIONS...

STATION/POSITION TIME  TEMP    WIND        PRES    WAVE   SWELL
                       AIR SEA DIR/SP/G            HT/PER HT/PER/DIR
                 (UTC) (F)     (DEG/KT/KT) (MB)    (FT/S) (FT/S/D)
FOLLY BEACH CMAN 0000   73     170/  7/  7 1016.5R
BUOY 41004       0000   76 79  210/  8/ 10 1015.6R   3/ 9   3/ 9
BUOY 41008       0000   76 76  150/  8/ 10 1015.4R   2/10   2/ 70/10
5E ST. MARYS GA  0000      77                N/A     2/10   2/100/11
FRYING PAN BUOY  0000   74 75  160/ 14/ 16 1016.5S   2/ 9   2/100/ 9
BUOY 41025       0000   71     180/ 17/ 19 1017.2R   4/ 8   3/ 60/ 8
CAPE LOOKOUT NC  0000   72     170/ 14/ 15 1016.6R
BUOY 41002       NOT AVBL
BUOY 41010       0000   79 80  160/ 10/ 12 1015.0S   3/ 9   3/ 80/ 9
BUOY 41012       NOT AVBL
ST AUGUSTINE FL  0000   77     130/ 11/ 12 1015.8R
CAPERS NEARSHORE 2300   72     210/  6/  6   N/A
FRIPP NEARSHORE  NOT AVBL


$$


USA.gov is the U.S. government's official web portal to all federal, state and local government web resources and services.